Zurück zum Katalog

COSMOS 2015

AktivNavigationLEO
NORAD 19909·PAYLOAD·🇷🇺 Russia

Gestartet Mar 24, 1989 von Plesetsk Cosmodrome

Loading…

Nächste Überflüge (nächste 24 Stunden)

TLE

AktuellSource: Space-Track

Epoche: Sep 14, 2026, 15:43 UTC

1 19909U 89025H   26257.65499840 -.00000019  00000-0 -25957-4 0  9993
2 19909  74.0126  27.0371 0024977  94.5127 277.6147 12.44067752701917

Verfolge COSMOS 2015 in Echtzeit mit AllMySat

Download on the App Store